GW3119 Weather Reports


time (UTC)temp
C
wind
direction
speed
KPH
gust
KPH
rain 1hr
cm
rain 24hr
cm
rain mn
cm
humidity
%
barometer
mb
20260510141543 9 269 19.3 29.0 0.00 0.69 0.00 77 1012.8
20260510140043 8 234 12.9 25.7 0.00 0.69 0.00 78 1012.5
20260510134545 9 250 14.5 24.1 0.00 0.69 0.00 76 1012.6
20260510133044 10 236 11.3 25.7 0.00 0.69 0.00 76 1012.4
20260510131546 9 238 6.4 19.3 0.00 0.69 0.00 73 1012.3
20260510130043 9 252 4.8 17.7 0.00 0.69 0.00 75 1012.3
20260510124548 8 292 6.4 22.5 0.00 0.69 0.00 76 1012.1
20260510123047 8 245 4.8 16.1 0.00 0.69 0.00 78 1011.9
20260510121547 7 238 3.2 19.3 0.00 0.69 0.00 78 1011.9
20260510120045 8 299 6.4 16.1 0.00 0.69 0.00 76 1011.8
20260510114542 7 251 3.2 12.9 0.00 0.69 0.00 79 1011.5
20260510113043 7 292 3.2 12.9 0.00 0.69 0.00 81 1011.3
20260510111546 6 286 6.4 17.7 0.00 0.69 0.00 81 1010.9
20260510110053 6 253 6.4 14.5 0.00 0.69 0.00 87 1010.6
20260510104547 6 258 1.6 9.7 0.00 0.69 0.00 85 1010.2
20260510103050 5 242 6.4 14.5 0.00 0.69 0.00 89 1009.9
20260510101557 5 238 3.2 6.4 0.00 0.69 0.00 92 1009.6
20260510100049 5 237 4.8 9.7 0.00 0.69 0.00 93 1009.3
20260510094551 5 248 4.8 8.0 0.00 0.69 0.00 92 1009.2
20260510093045 6 226 4.8 14.5 0.00 0.69 0.00 92 1008.8
20260510091545 6 240 6.4 12.9 0.00 0.69 0.00 93 1008.7
20260510090053 6 238 6.4 12.9 0.00 0.69 0.00 94 1008.5
20260510084547 6 360 4.8 8.0 0.00 0.69 0.00 96 1008.3
20260510083047 6 237 4.8 8.0 0.00 0.69 0.00 96 1008.2
20260510081545 6 230 1.6 4.8 0.00 0.69 0.00 96 1007.9
20260510080058 7 234 3.2 4.8 0.00 0.69 0.00 97 1007.8
20260510074547 7 234 1.6 4.8 0.00 0.69 0.00 96 1007.4
20260510073050 6 234 3.2 4.8 0.00 0.69 0.00 96 1007.4
20260510071546 7 235 1.6 4.8 0.00 0.69 0.00 96 1007.3
20260510064548 6 231 4.8 11.3 0.00 0.69 0.00 96 1007.4
20260510063045 7 242 4.8 11.3 0.00 0.69 0.00 96 1007.1
20260510061544 7 216 6.4 12.9 0.00 0.69 0.00 96 1007.0
20260510060048 7 240 4.8 14.5 0.00 0.69 0.00 95 1006.9
20260510054542 7 229 9.7 16.1 0.00 0.69 0.00 96 1006.8
20260510053054 7 249 8.0 17.7 0.00 0.69 0.00 96 1006.8
20260510051556 7 221 4.8 12.9 0.00 0.69 0.00 95 1006.4
20260510050052 8 223 3.2 14.5 0.00 0.69 0.00 95 1006.2
20260510044545 8 236 6.4 17.7 0.00 0.69 0.00 96 1006.4
20260510043047 8 235 8.0 16.1 0.00 0.69 0.00 96 1006.1
20260510041553 8 245 9.7 17.7 0.00 0.69 0.00 96 1006.0
20260510040100 7 225 6.4 11.3 0.00 0.69 0.00 96 1005.9
20260510034547 7 219 4.8 9.7 0.00 0.69 0.69 96 1005.7
20260510033054 7 256 3.2 8.0 0.00 0.69 0.69 95 1005.5
20260510031548 8 246 3.2 9.7 0.00 0.69 0.69 95 1005.1
20260510030049 8 243 4.8 17.7 0.00 0.69 0.69 95 1004.8
20260510024541 8 227 6.4 19.3 0.03 0.69 0.69 94 1005.2
20260510023047 9 256 11.3 24.1 0.03 0.69 0.69 93 1005.3
20260510021635 9 255 9.7 22.5 0.03 0.69 0.69 94 1005.3
20260510020058 10 245 12.9 19.3 0.05 0.69 0.69 94 1005.1
20260510014558 10 279 9.7 17.7 0.15 0.66 0.66 95 1004.9
20260510013101 10 238 1.6 12.9 0.38 0.66 0.66 95 1004.8
20260510011552 10 226 11.3 22.5 0.66 0.66 0.66 95 1004.7
20260510010058 10 214 9.7 14.5 0.64 0.64 0.64 95 1004.7
20260510004548 10 251 4.8 25.7 0.51 0.51 0.51 92 1004.6
20260510003054 11 185 27.4 43.5 0.20 0.20 0.20 86 1005.4
20260510001544 12 225 6.4 14.5 0.00 0.00 0.00 81 1002.8
20260510000041 12 175 6.4 19.3 0.00 0.00 0.00 81 1002.6
20260509234551 13 209 8.0 16.1 0.00 0.00 0.00 80 1002.5
20260509233048 13 192 8.0 17.7 0.00 0.00 0.00 79 1002.5
20260509231549 14 169 4.8 16.1 0.00 0.00 0.00 78 1002.7
20260509230049 14 190 1.6 9.7 0.00 0.00 0.00 78 1003.2
20260509224542 14 163 3.2 14.5 0.00 0.00 0.00 78 1003.4
20260509223047 14 191 4.8 14.5 0.00 0.00 0.00 78 1003.4
20260509221543 14 169 3.2 14.5 0.00 0.00 0.00 77 1003.5
20260509220052 15 199 3.2 16.1 0.00 0.00 0.00 76 1003.4
20260509214549 15 160 9.7 17.7 0.00 0.00 0.00 76 1003.5
20260509213102 15 194 9.7 20.9 0.00 0.00 0.00 75 1003.7
20260509211544 16 189 9.7 17.7 0.00 0.00 0.00 73 1003.6
20260509210049 16 138 6.4 17.7 0.00 0.00 0.00 73 1003.5
20260509204543 16 213 11.3 22.5 0.00 0.00 0.00 72 1003.7
20260509203054 16 151 11.3 25.7 0.00 0.00 0.00 71 1004.0
20260509201546 16 165 11.3 27.4 0.00 0.00 0.00 71 1004.1
20260509200052 16 134 11.3 25.7 0.00 0.00 0.00 72 1004.5
20260509194554 16 187 9.7 24.1 0.00 0.00 0.00 74 1004.6
20260509193045 16 171 12.9 22.5 0.00 0.00 0.00 72 1004.7
20260509191604 16 188 12.9 29.0 0.00 0.00 0.00 68 1004.9
20260509190047 16 192 12.9 24.1 0.00 0.00 0.00 70 1005.1
20260509184543 16 219 8.0 25.7 0.00 0.00 0.00 73 1005.2
20260509183055 16 182 12.9 33.8 0.00 0.00 0.00 71 1005.4
20260509181559 15 206 14.5 24.1 0.00 0.00 0.00 72 1005.5
20260509174547 15 203 9.7 22.5 0.00 0.00 0.00 75 1006.1
20260509173057 15 121 9.7 17.7 0.00 0.00 0.00 77 1006.1
20260509171545 15 198 11.3 24.1 0.00 0.00 0.00 75 1006.1
20260509170044 15 213 12.9 24.1 0.00 0.00 0.00 74 1006.0
20260509164551 15 172 6.4 17.7 0.00 0.00 0.00 73 1006.2
20260509163052 14 185 6.4 19.3 0.00 0.00 0.00 74 1006.4
20260509161559 13 173 9.7 20.9 0.00 0.00 0.00 73 1006.8
20260509160056 13 160 6.4 17.7 0.00 0.00 0.00 74 1006.9
20260509154553 13 121 9.7 17.7 0.00 0.00 0.00 74 1007.0
20260509153055 13 169 4.8 14.5 0.00 0.00 0.00 75 1007.2
20260509151541 13 221 3.2 16.1 0.00 0.00 0.00 74 1007.4
20260509150049 12 188 8.0 22.5 0.00 0.00 0.00 76 1007.5
20260509144550 12 144 8.0 19.3 0.00 0.00 0.00 75 1007.4
20260509143043 11 126 8.0 17.7 0.00 0.00 0.00 76 1007.6